Location: Unspecified
(0.0000°N, 0.0000°E)
Time: 22:59:19
(UTC-04:00)

Envisat - Pass Details

Date: 21 September 2021
Orbit: 764 x 766 km, 98.2° (Epoch: 23 October)

Event Time Altitude Azimuth Distance (km) Brightness Sun altitude
Rises 00:57:51 0° 6° (N) 3,212 6.3 -13.8°
Reaches altitude 10° 01:00:09 10° 2° (N) 2,289 5.5 -13.2°
Maximum altitude 01:05:08 63° 282° (WNW) 852 3.0 -12.0°
Drops below altitude 10° 01:10:09 10° 201° (SSW) 2,298 5.3 -10.7°
Sets 01:12:28 0° 198° (SSW) 3,227 6.0 -10.2°
